Regional Weather Roundup
Issued by NWS

Home | Current Version | Previous Version | Graphics & Text | Print | Product List | Glossary On
Versions: 1 2 3 4 5 6 7 8 9 10 11 12 13 14 15 16 17 18 19 20 21 22 23 24 25 26 27 28 29 30 31 32 33 34 35 36 37 38 39 40 41 42 43 44 45 46 47 48 49 50
000
ASUS43 KTOP 210359
RWRKS

WEATHER ROUNDUP FOR KANSAS
NATIONAL WEATHER SERVICE GOODLAND KS
1100 PM CDT FRI OCT 20 2017

NOTE:  "FAIR" INDICATES FEW OR NO CLOUDS BELOW 12,000 FEET WITH NO
SIGNIFICANT WEATHER AND/OR OBSTRUCTIONS TO VISIBILITY.

KSZ001>006-013>018-027>032-041>047-210500-
NORTHWEST KANSAS

CITY           SKY/WX    TMP DP  RH WIND       PRES   REMARKS
GOODLAND       CLEAR     56  44  64 S15       29.51R
HAYS           CLEAR     68  59  73 S31G39    29.59F
HILL CITY      CLEAR     69  59  70 S23G37    29.55F
RUSSELL        CLOUDY    69  62  78 S32G44    29.61F
$$

KSZ061>065-074>080-084>089-210500-
SOUTHWEST KANSAS

CITY           SKY/WX    TMP DP  RH WIND       PRES   REMARKS
DODGE CITY     CLEAR     68  57  68 S28G41    29.66S
ELKHART          N/A     64  48  56 S12         N/A
GARDEN CITY    CLEAR     66  56  70 S17G26    29.61S
GREAT BEND     CLEAR     68  61  78 S29G37    29.66S
LIBERAL        CLEAR     69  55  60 S26G33    29.66S
$$

KSZ066>073-081>083-090>101-210500-
SOUTHEAST KANSAS

CITY           SKY/WX    TMP DP  RH WIND       PRES   REMARKS
CHANUTE        PTCLDY    66  59  78 S16G26    29.89R
COFFEYVILLE    PTCLDY    66  60  81 S13       29.89S
HUTCHINSON     PTCLDY    70  62  76 S22G36    29.74S
MEDICINE LODGE   N/A     69  61  75 S17G36    29.74R
NEWTON         CLOUDY    69  61  75 S25G36    29.78S
PARSONS        PTCLDY    66  59  78 SE8G16    29.91R
WICHITA INTL   MOCLDY    71  62  73 S24G35    29.78R
WICHITA JABRA  PTCLDY    70  62  76 S21G31    29.79R
WICHITA MCCONL MOCLDY    71  60  69 S21G32    29.80R
WINFIELD       MOCLDY    70  63  78 S22       29.84R
$$

KSZ007>012-019>026-033>040-048>060-102>105-210500-
NORTHEAST KANSAS

CITY           SKY/WX    TMP DP  RH WIND       PRES   REMARKS
CONCORDIA      CLOUDY    69  58  67 S23G35    29.66F
EMPORIA        CLEAR     67  57  70 S29G37    29.81S
LAWRENCE       CLOUDY    68  58  70 SE17G29   29.84R
MANHATTAN      MOCLDY    70  60  70 S24G35    29.73F
OLATHE IND     CLOUDY    66  57  72 S16G24    29.88R
OLATHE EXE     PTCLDY    64  57  78 S17       29.88R
SALINA         CLOUDY    73  62  68 S32G43    29.69F
TOPEKA BILLARD CLOUDY    70  59  68 S22G33    29.79F
TOPEKA FORBES  CLOUDY    69  59  70 S23G33    29.80S
$$




USA.gov is the U.S. government's official web portal to all federal, state and local government web resources and services.